Satellite: NO-44
Catalog number: 26931
Epoch time:      10034.78858652
Element set:    0378
Inclination:      067.0508 deg
RA of node:       187.6618 deg
Eccentricity:    0.0006714
Arg of perigee:   265.7855 deg
Mean anomaly:     094.2492 deg
Mean motion:   14.29581107 rev/day
Decay rate:       -4.0e-08 rev/day^2
Epoch rev:           43568
Checksum:              334

Satellite: SO-50
Catalog number: 27607
Epoch time:      10034.46624411
Element set:    0095
Inclination:      064.5576 deg
RA of node:       042.6639 deg
Eccentricity:    0.0040295
Arg of perigee:   138.0348 deg
Mean anomaly:     222.3840 deg
Mean motion:   14.71494941 rev/day
Decay rate:       -1.0e-08 rev/day^2
Epoch rev:           38270
Checksum:              286

Satellite: CO-55
Catalog number: 27844
Epoch time:      10034.91640941
Element set:    0772
Inclination:      098.7108 deg
RA of node:       045.7918 deg
Eccentricity:    0.0009375
Arg of perigee:   192.6548 deg
Mean anomaly:     167.4405 deg
Mean motion:   14.20682073 rev/day
Decay rate:        6.2e-07 rev/day^2
Epoch rev:           34216
Checksum:              314

Satellite: CO-57
Catalog number: 27848
Epoch time:      10034.71536247
Element set:    0724
Inclination:      098.7170 deg
RA of node:       044.6690 deg
Eccentricity:    0.0009381
Arg of perigee:   195.3808 deg
Mean anomaly:     164.7078 deg
Mean motion:   14.20477666 rev/day
Decay rate:        1.4e-07 rev/day^2
Epoch rev:           34209
Checksum:              323

Satellite: AO-51
Catalog number: 28375
Epoch time:      10034.93920707
Element set:    0596
Inclination:      098.0552 deg
RA of node:       036.0669 deg
Eccentricity:    0.0083967
Arg of perigee:   141.0297 deg
Mean anomaly:     219.6987 deg
Mean motion:   14.40667598 rev/day
Decay rate:        1.3e-07 rev/day^2
Epoch rev:           29432
Checksum:              339

Satellite: CO-56
Catalog number: 28941
Epoch time:      09297.68475575
Element set:     556
Inclination:      098.0955 deg
RA of node:       138.9518 deg
Eccentricity:    0.0011688
Arg of perigee:   319.8691 deg
Mean anomaly:     040.7485 deg
Mean motion:   16.46998778 rev/day
Decay rate:  1.4491492e-01 rev/day^2
Epoch rev:           20790
Checksum:              407

Satellite: GENESAT1
Catalog number: 29655
Epoch time:      10034.70536516
Element set:    0933
Inclination:      040.0190 deg
RA of node:       165.9000 deg
Eccentricity:    0.0004066
Arg of perigee:   059.1363 deg
Mean anomaly:     300.9856 deg
Mean motion:   15.73399362 rev/day
Decay rate:     2.9560e-04 rev/day^2
Epoch rev:           17884
Checksum:              298

Satellite: CP3
Catalog number: 31129
Epoch time:      10034.82481361
Element set:     497
Inclination:      097.9615 deg
RA of node:       081.4225 deg
Eccentricity:    0.0100874
Arg of perigee:   287.6585 deg
Mean anomaly:     071.3605 deg
Mean motion:   14.52205420 rev/day
Decay rate:        9.7e-07 rev/day^2
Epoch rev:           14850
Checksum:              291

Satellite: CO-65
Catalog number: 32785
Epoch time:      10034.17576994
Element set:    0596
Inclination:      097.9135 deg
RA of node:       100.8559 deg
Eccentricity:    0.0015103
Arg of perigee:   005.2078 deg
Mean anomaly:     354.9293 deg
Mean motion:   14.81576306 rev/day
Decay rate:       -2.8e-07 rev/day^2
Epoch rev:           09564
Checksum:              328

Satellite: KKS-1
Catalog number: 33493
Epoch time:      10035.75723163
Element set:     180
Inclination:      098.0709 deg
RA of node:       154.2598 deg
Eccentricity:    0.0019410
Arg of perigee:   206.6806 deg
Mean anomaly:     153.3426 deg
Mean motion:   14.80838060 rev/day
Decay rate:       3.67e-06 rev/day^2
Epoch rev:            5588
Checksum:              299

Satellite: SOHLA-1
Catalog number: 33496
Epoch time:      10034.83667588
Element set:      16
Inclination:      098.0469 deg
RA of node:       145.7363 deg
Eccentricity:    0.0005519
Arg of perigee:   266.5160 deg
Mean anomaly:     093.5409 deg
Mean motion:   14.69467166 rev/day
Decay rate:       1.61e-06 rev/day^2
Epoch rev:            5529
Checksum:              322

/EX
SB KEPS @ AMSAT  $ORB10035.W
Orbital Elements  10035.WEATHER

HR AMSAT ORBITAL ELEMENTS FOR WEATHER SATELLITES
FROM WA5QGD FORT WORTH,TX February 4, 2010
Send Subscribe/unsubscribe to KEPS at http://www.amsat.org/mailman/listinfo/kep
BID: ORB10035.W
TO ALL RADIO AMATEURS BT

Satellite: NOAA-10
Catalog number: 16969
Epoch time:      10034.82911098
Element set:    0943
Inclination:      098.6722 deg
RA of node:       064.9585 deg
Eccentricity:    0.0011540
Arg of perigee:   238.8128 deg
Mean anomaly:     121.1916 deg
Mean motion:   14.27405317 rev/day
Decay rate:       -1.4e-07 rev/day^2
Epoch rev:           21655
Checksum:              299

Satellite: NOAA-11
Catalog number: 19531
Epoch time:      10034.87200359
Element set:    0958
Inclination:      098.7730 deg
RA of node:       126.1593 deg
Eccentricity:    0.0011594
Arg of perigee:   164.7850 deg
Mean anomaly:     195.3690 deg
Mean motion:   14.14914263 rev/day
Decay rate:       2.21e-06 rev/day^2
Epoch rev:           10228
Checksum:              293

